Location: Medlow Airstrip Trail, Medlow Bath NSW 2780, Australia
(33.6682°S, 150.3233°E)
Time: 11:59:22
(UTC+11:00)

Explorer 11/Cluster Stage 4 - Pass Details

Date: 27 September 2019
Orbit: 467 x 1259 km, 28.8° (Epoch: 13 October)

Event Time Altitude Azimuth Distance (km) Brightness Sun altitude
Rises 14:05:49 0° 285° (WNW) 3,634 10.7 44.8°
Reaches altitude 10° 14:11:16 10° 321° (NW) 2,906 10.5 43.9°
Maximum altitude 14:12:37 11° 332° (NNW) 2,910 10.4 43.7°
Drops below altitude 10° 14:13:59 10° 343° (NNW) 2,996 10.3 43.4°
Sets 14:20:09 0° 17° (NNE) 4,110 10.4 42.4°
